Location: Unspecified
(42.4608°N, 0.0000°E)
Time: 00:48:11
(UTC+00:00)

Explorer 7 - Visible Passes

Search period start: 04 April 2026 00:00
Search period end: 14 April 2026 00:00
Orbit: 429 x 539 km, 50.2° (Epoch: 29 March)

Date Brightness Start Highest point End Pass type
(mag) Time Alt. Az. Time Alt. Az. Time Alt. Az.
4 Apr 8.2 20:15:44 10° SSW 20:17:34 23° S 20:17:34 23° S visible
5 Apr 7.4 19:48:43 10° SSW 19:52:22 34° SE 19:53:13 30° ESE visible
5 Apr 9.3 21:26:45 10° WSW 21:27:35 15° W 21:27:35 15° W visible
6 Apr 7.5 19:21:40 10° SSW 19:25:17 31° SE 19:28:30 12° ENE visible
6 Apr 7.7 20:59:35 10° WSW 21:02:51 46° WNW 21:02:51 46° WNW visible
7 Apr 7.3 20:32:25 10° WSW 20:36:24 56° NNW 20:37:45 36° NE visible
7 Apr 9.9 22:11:56 10° WNW 22:12:04 11° WNW 22:12:04 11° WNW visible
8 Apr 7.2 20:05:13 10° WSW 20:09:13 59° NNW 20:12:21 15° NE visible
8 Apr 9.2 21:44:42 10° WNW 21:46:39 21° NW 21:46:39 21° NW visible
9 Apr 7.2 19:37:58 10° WSW 19:42:00 63° NNW 19:45:58 10° NE visible
9 Apr 8.5 21:17:26 10° WNW 21:20:53 27° N 21:20:58 27° N visible
10 Apr 7.1 19:10:43 10° WSW 19:14:46 66° NNW 19:18:45 10° NE visible
10 Apr 8.5 20:50:08 10° WNW 20:53:39 28° N 20:55:07 22° NNE visible
10 Apr 10.0 22:29:17 10° NW 22:29:24 11° NW 22:29:24 11° NW visible
11 Apr 8.5 20:22:49 10° WNW 20:26:21 28° N 20:29:08 14° NE visible
11 Apr 9.4 22:01:59 10° NW 22:03:24 18° NW 22:03:24 18° NW visible
12 Apr 8.5 19:55:28 10° WNW 19:59:02 29° N 20:02:32 10° NE visible
12 Apr 8.7 21:34:41 10° NW 21:37:17 26° NNW 21:37:17 26° NNW visible
13 Apr 8.5 19:28:05 10° WNW 19:31:41 29° N 19:35:13 10° NE visible
13 Apr 8.3 21:07:20 10° NW 21:10:51 28° N 21:11:05 28° NNE visible
